Probability
0 0 0 0 0 0 0 0 0 0 0 0 0 0 0 0 0 0 0 0 0 0 0 0 0 0 0 0 0 0 0 0 0 0 0 0 0 0
0 0 0 0 0 0 0 0 0 0 0 0 0 0 0 0 0 0 0 0 0 0 0 0 0 0 0 0 0 0 0 0 0 0 0 0 0 0
0 0 0 0 0 0 0 0 0 0 0 0 0 0 0 0 0 0 0 0 0 0 0 0 0 0 0 0 0 0 0 0 0 0 0 0 0 0
0 0 0 0 0 0 0 0 0 0 0 0 0 0 0 0 0 0 0 0 0 0 0 0 0 0 0 0 0 0 0 0 0 0 0 0 0 0
0 0 0 0 0 0 0 0 0 0 0 0 0 0 0 0 0 0 0 0 0 0 0 0 0 0 0 0 0 0 0 0 0 0 0 0 0 0
0 0 0 0 0 0 0 0 0 0 0 0 0 0 0 0 0 0 0 0 0 0 0 0 0 0 0 0 0 0 0 0 0 0 0 0 0 0
0 0 0 0 0 0 0 0 0 0 0 0 0 0 0 0 0 0 0 0 0 0 0 0 0 0 0 0 0 0 0 0 0 0 0 0 0 0
0 0 0 0 0 0 0 0 0 0 0 0 0 0 0 0 0 0 0 0 0 0 0 0 0 0 0 0 0 0 0 0 0 0 0 0 0 0
0 0 0 0 0 0 0 0 0 0 0 0 0 0 0 0 0 0 0 0 0 0 0 0 0 0 0 0 0 0 0 0 0 0 0 0 0 0
0 0 0 0 0 0 0 0 0 0 0 0 0 0 0 0 0 0 0 0 0 0 0 0 0 0 0 0 0 0 0 0 0 0 0 0 0 0
0 0 0 0 0 0 0 0 0 0 0 0 0 0 0 0 0 0 0 0 0 0 0 0 0 0 0 0 0 0 0 0 0 0 0 0 0 0
0 0 0 0 0 0 0 0 0 0 0 0 0 0 0 0 0 0 0 0 0 0 0 0 0 0 0 0 0 0 0 0 0 0 0 0 0 0
0 0 0 0 0 0 0 0 0 0 0 0 0 0 0 0 0 0 0 0 0 0 0 0 0 0 0 0 0 0 0 0 0 0 0 0 0 0
0 0 0 0 0 0 0 0 0 0 0 0 0 0 0 0 0 0 0 0 0 0 0 0 0 0 0 0 0 0 0 0 0 0 0 0 0 0
0 0 0 0 0 0 0 0 0 0 0 0 0 0 0 0 0 0 0 0 0 0 0 0 0 0 0 0 0 0 0 0 0 0 0 0 0 0
0 0 0 0 0 0 0 0 0 0 0 0 0 0 0 0 0 0 0 0 0 0 0 0 0 0 0 0 0 0 0 0 0 0 0 0 0 0
0 0 0 0 0 0 0 0 0 0 0 0 0 0 0 0 0 0 0 0 0 0 0 0 0 0 0 0 0 0 0 0 0 0 0 0 0 0
0 0 0 0 0 0 0 0 0 0 0 0 0 0 0 0 0 0 0 0 0 0 0 0 0 0 0 0 0 0 0 0 0 0 0 0 0 0
0 0 0 0 0 0 0 0 0 0 0 0 0 0 0 0 0 0 0 0 0 0 0 0 0 0 0 0 0 0 0 0 0 0 0 0 0 0
0 0 0 0 0 0 0 0 0 0 0 0 0 0 0 0 0 0 0 0 0 0 0 0 0 0 0 0 0 0 0 0 0 0 0 0 0 0
0 0 0 0 0 0 0 0 0 0 0 0 0 0 0 0 0 0 0 0 0 0 0 0 0 0 0 0 0 0 0 0 0 0 0 0 0 0
0 0 0 0 0 0 0 0 0 0 0 0 0 0 0 0 0 0 0 0 0 0 0 0 0 0 0 0 0 0 0 0 0 0 0 0 0 0
0 0 0 0 0 0 0 0 0 0 0 0 0 0 0 0 0 0 0 0 0 0 0 0 0 0 0 0 0 0 0 0 0 0 0 0 0 0
Wind_Speed
3 3 2 2 2 2 2 2 2 4 4 3 2 1 1 1 3 2 2 6 9 9 10 10 10 11 11 11 11 12 12 11 11 11 11 12 12 12
3 3 3 3 2 2 2 2 3 4 5 3 2 2 3 2 4 2 3 8 9 10 11 10 11 11 11 11 11 11 11 11 11 11 11 12 12 12
3 4 4 4 3 3 2 3 3 4 7 6 3 3 3 3 4 3 3 4 4 9 11 11 11 11 11 11 11 11 11 11 11 11 11 12 12 12
4 4 5 4 4 3 3 4 4 4 5 8 4 3 4 4 4 4 4 3 3 8 11 11 11 11 11 11 11 11 11 11 11 11 11 12 12 12
4 5 5 4 5 4 4 4 4 4 4 5 6 3 3 3 3 4 4 4 4 7 10 11 11 11 11 11 11 11 10 10 10 11 11 11 12 12
5 5 5 5 6 5 5 5 4 4 4 5 5 4 4 4 3 3 4 3 4 4 7 8 9 11 11 11 10 10 10 10 11 11 11 11 11 11
5 5 6 7 9 8 6 5 4 4 4 5 6 5 5 3 3 3 4 4 4 3 3 4 4 4 5 8 9 10 10 11 11 11 11 11 11 11
6 6 6 7 10 13 14 13 10 7 6 6 6 7 7 5 4 4 3 4 5 2 2 4 3 4 4 3 8 11 11 11 10 11 11 11 11 11
6 6 6 6 9 6 10 13 13 16 15 9 8 9 7 5 4 4 4 5 6 3 2 5 3 5 4 5 11 12 11 10 11 11 12 12 12 12
6 7 7 7 7 7 6 7 7 8 10 8 8 8 7 5 5 6 6 6 6 4 3 5 4 4 4 4 10 11 11 11 11 12 12 12 12 12
6 6 7 7 11 14 8 7 7 7 11 14 14 13 13 13 9 4 3 4 6 4 3 3 3 3 4 4 6 9 10 11 11 12 12 12 12 12
5 6 10 11 13 14 8 6 8 7 6 7 8 10 9 9 12 6 4 5 5 4 2 2 2 2 4 3 2 2 4 8 11 11 12 12 12 6
5 5 6 13 15 15 12 7 11 10 6 6 5 5 4 4 5 5 5 5 5 5 2 2 2 2 3 4 3 2 3 3 4 6 9 12 12 9
6 5 6 14 15 16 12 12 15 13 5 4 5 5 5 5 4 4 5 5 6 6 4 3 3 3 3 5 5 3 3 3 3 4 4 8 10 12
6 11 14 16 15 11 13 15 12 6 4 5 6 6 5 4 3 3 4 4 5 5 5 5 5 4 4 5 5 4 4 4 3 4 4 4 4 4
7 10 15 15 13 12 11 8 5 5 5 5 5 4 3 3 3 3 3 3 4 4 5 6 6 6 6 6 6 7 5 4 3 3 4 5 5 5
8 6 5 5 5 5 5 5 5 5 5 4 4 4 4 4 4 3 3 3 4 5 4 3 4 5 6 6 7 7 6 6 5 5 5 6 6 5
10 6 7 6 6 6 6 5 5 5 5 4 4 5 4 4 4 3 3 4 5 5 4 3 2 2 3 5 9 8 6 6 5 5 5 6 8 5
7 6 6 6 6 5 5 5 5 4 4 4 4 4 4 4 4 4 4 4 5 5 4 3 3 3 5 5 4 7 5 4 4 5 5 5 7 7
5 6 6 6 5 5 5 5 4 4 4 4 4 4 4 4 4 4 4 5 5 4 4 3 4 5 5 5 4 4 7 6 5 6 6 5 7 10
5 5 5 5 5 5 4 4 4 4 4 4 4 4 4 4 4 4 4 7 6 4 5 5 5 6 3 2 4 5 4 7 8 6 5 6 7 6
6 5 5 5 4 4 4 4 4 4 4 4 4 4 4 4 4 5 4 4 4 4 5 3 2 2 2 4 6 6 6 6 7 12 13 11 5 5
5 5 5 4 4 4 4 4 5 4 4 4 4 4 3 3 3 4 4 4 4 4 3 3 2 2 4 4 5 6 7 7 6 6 6 10 14 17
Wind_Direction
238 245 248 255 254 248 235 211 233 280 284 263 273 269 266 244 258 255 257 287 297 298 301 305 307 309 310 312 314 315 317 318 319 320 322 324 323 324
229 233 241 242 244 240 233 232 222 238 267 266 265 274 276 274 265 253 252 282 289 292 295 296 298 301 304 305 308 309 310 311 313 315 317 319 319 318
246 238 243 240 239 242 235 233 235 234 260 274 263 271 275 275 280 265 257 256 270 284 290 291 292 294 296 299 301 303 305 307 310 311 312 315 316 316
243 243 247 246 243 240 236 237 238 235 247 269 276 269 266 266 267 271 274 266 256 276 284 287 288 290 292 294 297 298 300 303 305 307 308 310 312 313
241 242 246 242 248 244 240 242 244 250 244 257 271 267 266 267 275 277 274 273 271 277 281 282 286 290 291 291 294 294 295 298 301 303 303 304 306 308
247 246 246 240 244 246 247 246 244 249 251 256 265 271 268 265 261 270 282 274 276 281 278 281 287 289 289 291 293 293 292 293 297 300 299 298 301 303
258 254 252 248 247 250 252 246 241 245 250 255 263 270 266 263 260 260 272 282 277 264 268 275 281 277 279 281 284 286 289 290 292 297 299 298 298 300
262 262 259 256 256 261 262 259 249 245 245 249 257 257 262 255 255 258 268 283 284 269 267 275 263 265 259 249 274 284 287 289 291 295 298 298 297 297
257 260 267 262 266 256 262 264 261 257 252 247 249 253 257 251 249 260 258 262 264 262 273 275 264 265 261 272 280 282 282 284 290 295 297 297 297 298
255 255 259 262 259 261 257 258 255 257 255 250 248 252 250 245 236 243 250 264 268 258 235 264 267 265 275 273 276 275 280 284 289 293 295 297 299 299
260 260 262 262 269 273 268 262 266 265 266 260 254 254 256 258 255 250 249 263 273 266 221 243 267 279 277 270 270 273 281 287 289 293 294 297 300 301
266 263 268 272 275 277 268 260 265 267 264 267 264 263 258 257 257 241 227 247 264 270 228 224 253 287 296 283 276 280 287 288 290 294 298 300 301 300
274 273 269 278 280 280 277 261 263 271 262 255 255 253 247 240 237 228 222 229 243 253 240 211 235 233 250 285 290 272 268 280 289 292 295 298 298 297
272 272 273 280 282 282 280 270 272 276 265 255 254 251 247 241 232 224 226 232 235 243 243 222 231 235 252 272 277 280 282 279 280 282 281 291 294 295
274 277 282 285 285 282 276 276 276 264 249 251 252 251 243 237 225 226 233 237 244 245 241 233 232 239 239 253 268 279 291 282 267 270 278 280 279 284
279 279 283 283 280 274 275 274 259 245 244 247 251 248 239 232 231 228 237 237 252 257 237 230 229 233 246 252 261 271 269 272 275 274 279 278 274 267
283 279 274 273 268 263 259 254 248 247 249 241 244 248 244 240 238 226 230 236 246 259 259 237 228 233 240 248 259 260 264 266 265 272 279 281 274 264
288 277 273 268 266 264 264 259 246 242 240 238 239 243 245 243 242 234 231 240 250 254 255 251 241 257 259 252 235 252 258 263 269 269 268 277 282 273
283 274 272 269 265 261 256 253 250 243 236 235 239 241 243 243 239 238 238 244 250 251 251 242 228 232 256 272 260 221 242 266 275 276 267 267 277 283
265 270 274 274 271 264 257 252 249 243 238 238 239 236 235 239 238 236 236 242 249 250 250 239 227 225 237 256 272 267 243 250 263 274 280 280 276 281
274 270 269 271 271 266 259 254 250 247 242 241 239 234 231 232 236 236 239 245 248 247 248 246 238 236 238 250 268 272 264 251 254 262 277 287 290 288
273 272 270 268 271 270 264 258 254 247 244 245 240 232 227 227 233 235 238 243 244 245 251 253 234 224 227 243 263 277 287 288 277 274 267 256 262 272
273 274 274 272 269 269 263 257 255 252 247 242 238 231 222 226 228 231 237 241 244 249 252 251 244 237 244 249 262 275 282 289 293 294 283 274 268 267